Location: Aubi�re
(45.7516°N, 3.1125°E)
Time: 22:36:13
(UTC+00:00)

Daily predictions for brighter satellites

Satellite Brightness Start Highest point End
(mag) Time Altitude Azimuth Time Altitude Azimuth Time Altitude Azimuth
Cosmos 1980 Rocket 2.8 16:29:56 10° NNW 16:35:07 35° NE 16:40:13 10° ESE
SL-08 R/B 3.3 16:31:18 10° NNE 16:36:01 83° ESE 16:40:39 10° SSW
Okean O Rocket 3.4 16:34:37 10° E 16:36:35 13° ENE 16:38:34 10° NNE
Cosmos 540 Rocket 4.0 16:32:30 10° S 16:37:14 41° ESE 16:42:01 10° NE
FengYun 1-2 T 4.3 16:32:21 10° SSE 16:37:47 57° ENE 16:43:13 10° N
Cosmos 2369 4.0 16:34:04 10° NNW 16:39:35 46° ENE 16:45:03 10° SE
SJ 16-02 4.0 16:36:25 10° NW 16:40:01 25° W 16:43:35 10° SSW
Cosmos 1812 4.2 16:42:49 10° SE 16:45:25 18° E 16:48:01 10° NE
Meteor PRIRODA 3.6 16:41:51 10° SSE 16:45:29 84° ENE 16:49:08 10° NNW
NOAA 12 4.1 16:40:58 10° SSE 16:46:16 79° ENE 16:51:37 10° NNW
ERBS 4.4 16:44:56 10° NW 16:46:53 15° NNW 16:48:51 10° NNE
SL-16 R/B 3.7 16:43:58 10° N 16:47:26 16° NE 16:50:53 10° ENE
CORIOLIS 4.3 16:44:37 10° SE 16:49:49 52° ENE 16:55:05 10° N
Cosmos 2082 Rocket 2.8 16:45:53 10° S 16:51:03 37° ESE 16:56:14 10° NE
Meteor 1-25 Rocket 4.2 16:50:17 10° N 16:55:53 77° ENE 17:01:30 10° SSE
Cosmos 468 Rocket 4.1 16:51:07 10° SSW 16:56:16 84° WNW 17:01:31 10° NNE
Cosmos 1500 Rocket 3.7 16:52:44 10° N 16:57:11 81° W 17:01:34 10° S
USA 306 4.2 16:56:59 10° WNW 17:00:37 26° N 17:03:34 13° NE
Cosmos 1898 Rocket 3.7 16:57:20 10° NNW 17:02:37 80° WSW 17:07:48 10° SSE
CZ-4B DEB 4.3 16:57:17 10° SSE 17:02:40 58° ENE 17:08:04 10° N
Cosmos 2278 4.1 16:57:49 10° NNW 17:03:13 40° NE 17:08:33 10° SE
Cosmos 2221 4.0 16:59:45 10° SW 17:03:43 37° WNW 17:07:45 10° N
Cosmos 1818 4.4 16:59:05 10° NNW 17:03:55 30° NE 17:08:42 10° E
Cosmos 1602 3.6 17:00:25 10° N 17:04:17 72° E 17:08:08 10° SSE
Cosmos 1939 Rocket 2.8 17:00:14 10° SSE 17:04:20 83° ENE 17:08:26 10° N
Sich 1 3.1 17:00:12 10° N 17:04:26 55° ENE 17:08:40 10° SSE
ARGOS 3.9 17:01:40 10° ESE 17:06:13 29° ENE 17:10:46 10° N
Cosmos 1805 Rocket 3.4 17:04:46 10° N 17:09:07 80° E 17:13:27 10° SSE
Cosmos 1833 Rocket 2.9 17:05:12 10° SSW 17:10:49 75° WNW 17:16:29 10° NNE
COSMOS 2406 3.3 17:08:58 10° SSW 17:14:43 89° WNW 17:20:30 10° NNE
NOSS 2-2 (C) 4.3 17:11:28 10° NW 17:16:39 76° NE 17:23:59 10° SE
deb Chang Zheng 4 4.2 17:13:38 10° SE 17:17:28 32° ENE 17:21:20 10° N
USA 307 4.1 17:16:15 10° NW 17:19:55 27° N 17:21:59 19° NE
CZ-2C R/B 4.2 17:16:13 10° S 17:20:53 44° W 17:25:27 10° NNW
USA 267 3.4 17:16:34 13° NE 17:22:26 75° NNW 17:28:57 10° WSW
Cosmos 1782 2.7 17:18:29 10° S 17:22:28 81° E 17:26:28 10° N
Cosmos 1092 Rocket 4.2 17:17:01 10° N 17:23:23 79° W 17:29:42 10° S
Cosmos 1428 Rocket 4.5 17:17:59 10° N 17:24:08 88° W 17:30:19 10° S
CZ-2C R/B 3.0 17:22:27 10° NNE 17:27:20 40° E 17:32:10 10° SSE
CZ-2D R/B 3.1 17:24:58 10° SSE 17:28:47 72° ENE 17:32:36 10° N
Cosmos 1500 3.1 17:25:14 10° N 17:28:59 89° W 17:32:43 10° S
CZ-4C R/B 3.0 17:23:41 10° NW 17:30:50 68° NE 17:39:13 10° SE
H-2A R/B 1.9 17:26:53 10° SSE 17:32:01 71° ENE 17:37:02 10° N
Meteor 2-16 Rocket 4.4 17:26:12 10° N 17:32:17 62° ENE 17:38:21 10° SSE
CZ-4B R/B 3.2 17:28:12 10° SSE 17:33:28 57° ENE 17:38:41 10° N
Cosmos 841 Rocket 3.5 17:29:55 10° SSW 17:35:05 82° WNW 17:40:16 10° NNE
PAYLOAD B 4.2 17:29:40 10° SSE 17:35:17 83° ENE 17:40:54 10° NNW
Cosmos 1937 Rocket 4.4 17:35:43 10° NNW 17:40:52 52° WSW 17:46:00 10° S
SMAP 4.2 17:37:12 10° S 17:41:41 47° W 17:46:11 10° NNW
USA 308 4.0 17:38:54 10° NW 17:42:38 29° N 17:43:39 26° NE
Lacrosse 5 rocket 1.8 17:40:20 10° NW 17:44:03 40° NNE 17:44:49 36° ENE
Cosmos 2142 Rocket 4.4 17:38:04 10° S 17:44:11 76° E 17:50:25 10° N
COSMO-SKYMED 1 2.6 17:41:39 19° NNE 17:44:40 54° E 17:48:54 10° S
Cosmos 921 Rocket 3.6 17:41:25 10° SSE 17:45:11 33° E 17:45:22 33° E
Cosmos 1125 Rocket 4.0 17:40:48 10° N 17:45:37 35° ENE 17:47:31 27° E
COSMOS 2455 3.0 17:41:31 10° SW 17:47:32 73° NW 17:52:29 16° NNE
Cosmos 372 Rocket 4.3 17:43:38 10° NNW 17:48:51 68° WSW 17:54:03 10° S
Cosmos 2279 Rocket 3.9 17:43:24 10° S 17:49:36 79° E 17:55:50 10° N
ATLAS 2AS CENTAUR R/B 4.4 17:45:42 10° NW 17:50:54 19° N 17:54:01 15° NNE
Cosmos 1633 Rocket 2.9 17:47:08 10° N 17:51:32 80° E 17:55:55 10° SSE
ISS -3.4 17:48:25 10° WNW 17:51:47 63° SSW 17:53:03 34° SE
Helios 1B 4.5 17:49:55 22° NNE 17:52:37 63° ESE 17:56:54 10° S
Cosmos 2360 Rocket 3.5 17:48:43 10° N 17:52:12 21° NNE 17:52:12 21° NNE
Cosmos 44 Rocket 3.3 17:49:12 10° NNW 17:54:04 56° NE 17:56:04 32° ESE
YAOGAN 1 4.4 17:56:50 17° NNE 17:56:50 17° NNE 17:57:58 10° N
Cosmos 2266 Rocket 4.2 17:48:08 10° N 17:54:20 50° ENE 18:00:32 10° SSE
USA 234 3.5 17:49:27 10° SE 17:55:58 69° SW 18:02:31 10° NW
Meteor 1-10 Rocket 4.4 17:51:24 10° SSE 17:56:58 50° E 18:00:37 21° NNE
SL-24 R/B - RUBIN 2 4.4 17:53:18 10° NW 17:57:39 49° WSW 18:01:48 10° SSE
Meteor 1-11 Rocket 4.0 17:52:43 10° N 17:58:06 44° ENE 18:03:31 10° SE
Cosmos 1666 2.7 17:54:33 10° NNW 17:58:16 74° W 18:01:57 10° S
Cosmos 1151 Rocket 3.2 17:56:14 10° SSW 18:00:33 74° W 18:04:41 11° N
CZ-4 R/B 4.3 18:02:19 10° SSE 18:06:26 83° ENE 18:10:36 10° NNW
USA 305 3.8 18:04:58 10° NW 18:08:40 34° N 18:08:40 34° N
Cosmos 1900 4.2 18:05:32 10° SSW 18:10:23 82° ESE 18:11:48 47° NE
X-37B 3.3 18:09:55 10° S 18:10:00 10° S 18:10:00 10° S
Okean O Rocket 1.6 18:07:50 10° SSE 18:12:17 82° WSW 18:16:47 10° NNW
Feng Yun 1-1 Rocket 4.3 18:07:38 10° SSE 18:13:30 67° ENE 18:19:19 10° N
Cosmos 2322 Rocket 2.5 18:08:37 10° NNW 18:13:54 42° NE 18:13:54 42° NE
Meteor 2-15 4.3 18:08:13 10° S 18:14:19 77° E 18:20:25 10° NNE
Landsat 5 3.2 18:16:57 77° NE 18:17:13 84° ESE 18:21:11 10° SSW
Cosmos 1980 Rocket 3.4 18:13:54 10° NW 18:19:11 41° WSW 18:24:25 10° S
Cosmos 1812 4.3 18:17:20 10° SW 18:20:52 35° WNW 18:23:54 13° NNW
Cosmos 1328 Rocket 3.9 18:16:53 10° SSW 18:21:17 64° W 18:24:02 22° N
Cosmos 1470 Rocket 3.5 18:17:11 10° N 18:21:39 85° W 18:26:08 10° S
Spot 2 4.4 18:20:29 35° SE 18:22:36 65° ENE 18:27:41 10° N
SL-16 R/B 2.0 18:26:52 10° NNW 18:32:35 74° ENE 18:33:20 64° ESE
SKYMED 2 4.5 18:30:16 23° N 18:32:42 48° WNW 18:36:52 10° SW
Cosmos 2082 Rocket 3.4 18:29:51 10° WSW 18:35:07 38° NW 18:38:46 18° N
Cosmos 1655 Rocket 4.1 18:29:28 10° N 18:35:54 81° W 18:42:14 10° S
Cosmos 2298 Rocket 4.0 18:30:38 10° NNW 18:35:58 81° WSW 18:38:49 28° SSE
ATLAS CENTAUR R/B 3.5 18:30:32 10° W 18:36:56 31° NW 18:37:44 29° NNW
USA 306 4.4 18:37:08 10° NW 18:39:34 29° NNW 18:39:34 29° NNW
DMSP B5D2-2 4.4 18:42:38 54° S 18:42:38 54° S 18:46:41 10° S
CZ-2C R/B 3.7 18:40:33 10° SSW 18:42:01 15° SSW 18:42:01 15° SSW
Cosmos 2333 Rocket 4.1 18:41:01 10° N 18:42:44 17° N 18:42:44 17° N
ARGOS 4.2 18:41:07 10° S 18:46:16 45° W 18:51:27 10° NNW
Cosmos 1818 4.0 18:42:27 10° NW 18:47:50 59° WSW 18:49:43 38° S
GEOS 3 Rocket 3.8 18:54:52 63° NNW 18:54:52 63° NNW 18:59:12 10° NW
Meteor 1-27 Rocket 4.0 18:57:16 10° SSW 19:01:42 58° SW 19:01:42 58° SW
USA 267 4.1 19:03:55 36° N 19:04:56 38° NNW 19:10:51 10° W
Cosmos 2219 Rocket 4.4 19:01:29 10° N 19:02:19 14° N 19:02:19 14° N
CZ-2C R/B 4.3 19:03:18 11° N 19:07:29 29° WNW 19:11:52 10° WSW
CZ-4C R/B 4.4 19:12:36 10° NW 19:19:18 35° WSW 19:26:47 10° S
Lacrosse 5 rocket 4.0 19:19:25 10° WNW 19:20:27 17° WNW 19:20:27 17° WNW
Cosmos 2360 Rocket 4.1 19:32:00 10° NNW 19:33:59 23° NNW 19:33:59 23° NNW
ATLAS 2AS CENTAUR R/B 4.4 19:38:00 10° NNW 19:41:27 23° N 19:41:27 23° N
Cosmos 2322 Rocket 4.1 19:52:56 10° NW 19:55:46 25° WNW 19:55:46 25° WNW
